Time,TemperatureF,DewpointF,PressureIn,WindDirection,WindDirectionDegrees,WindSpeedMPH,WindSpeedGustMPH,Humidity,HourlyPrecipIn,Conditions,Clouds,dailyrainin,SoftwareType,DateUTC
2013-03-25 00:00:00,25.0,20.3,30.08,WNW,292,6.0,10.0,82,0.00,,,0.00,VWS V14.00,2013-03-25 05:00:00,
2013-03-25 00:05:00,24.9,20.5,30.08,WNW,292,7.0,15.0,83,0.00,,,0.00,VWS V14.00,2013-03-25 05:05:00,
2013-03-25 00:10:00,24.8,20.4,30.08,WNW,292,7.0,14.0,83,0.00,,,0.00,VWS V14.00,2013-03-25 05:10:00,
2013-03-25 00:15:00,24.7,20.3,30.08,WNW,292,6.0,12.0,83,0.00,,,0.00,VWS V14.00,2013-03-25 05:15:00,
2013-03-25 00:20:00,24.6,20.2,30.08,WNW,292,6.0,13.0,83,0.00,,,0.00,VWS V14.00,2013-03-25 05:20:00,
2013-03-25 00:25:00,24.5,20.1,30.08,WNW,292,7.0,13.0,83,0.00,,,0.00,VWS V14.00,2013-03-25 05:25:00,
2013-03-25 00:30:00,24.4,20.0,30.08,WNW,292,8.0,13.0,83,0.00,,,0.00,VWS V14.00,2013-03-25 05:30:00,
2013-03-25 00:35:00,24.4,20.0,30.08,WNW,292,7.0,12.0,83,0.00,,,0.00,VWS V14.00,2013-03-25 05:35:00,
2013-03-25 00:40:00,24.4,20.3,30.08,WNW,292,6.0,11.0,84,0.00,,,0.00,VWS V14.00,2013-03-25 05:40:00,
2013-03-25 00:45:00,24.3,20.2,30.08,WNW,292,7.0,11.0,84,0.00,,,0.00,VWS V14.00,2013-03-25 05:45:00,
2013-03-25 00:50:00,24.2,20.1,30.08,WNW,292,6.0,13.0,84,0.00,,,0.00,VWS V14.00,2013-03-25 05:50:00,
2013-03-25 00:55:00,24.1,20.0,30.08,WNW,292,6.0,11.0,84,0.00,,,0.00,VWS V14.00,2013-03-25 05:55:00,
2013-03-25 01:00:00,24.0,19.9,30.08,WNW,292,7.0,14.0,84,0.00,,,0.00,VWS V14.00,2013-03-25 06:00:00,
2013-03-25 01:05:00,24.0,19.9,30.08,WNW,292,7.0,13.0,84,0.00,,,0.00,VWS V14.00,2013-03-25 06:05:00,
2013-03-25 01:10:00,24.0,19.9,30.08,WNW,292,8.0,16.0,84,0.00,,,0.00,VWS V14.00,2013-03-25 06:10:00,
2013-03-25 01:15:00,24.0,19.9,30.08,WNW,292,7.0,13.0,84,0.00,,,0.00,VWS V14.00,2013-03-25 06:15:00,
2013-03-25 01:20:00,24.1,20.0,30.08,WNW,292,6.0,13.0,84,0.00,,,0.00,VWS V14.00,2013-03-25 06:20:00,
2013-03-25 01:25:00,24.1,20.0,30.08,WNW,292,8.0,12.0,84,0.00,,,0.00,VWS V14.00,2013-03-25 06:25:00,
2013-03-25 01:30:00,24.2,20.1,30.08,WNW,292,6.0,14.0,84,0.00,,,0.00,VWS V14.00,2013-03-25 06:30:00,
2013-03-25 01:35:00,24.2,20.1,30.08,WNW,292,5.0,15.0,84,0.00,,,0.00,VWS V14.00,2013-03-25 06:35:00,
2013-03-25 01:40:00,24.2,20.1,30.08,WNW,292,7.0,12.0,84,0.00,,,0.00,VWS V14.00,2013-03-25 06:40:00,
2013-03-25 01:45:00,24.1,20.0,30.08,WNW,292,6.0,12.0,84,0.00,,,0.00,VWS V14.00,2013-03-25 06:45:00,
2013-03-25 01:50:00,24.1,20.0,30.08,West,270,6.0,13.0,84,0.00,,,0.00,VWS V14.00,2013-03-25 06:50:00,
2013-03-25 01:55:00,24.0,19.9,30.08,West,270,6.0,11.0,84,0.00,,,0.00,VWS V14.00,2013-03-25 06:55:00,
2013-03-25 02:00:00,24.0,19.9,30.08,West,270,5.0,10.0,84,0.00,,,0.00,VWS V14.00,2013-03-25 07:00:00,
2013-03-25 02:05:00,23.9,19.8,30.08,West,270,6.0,11.0,84,0.00,,,0.00,VWS V14.00,2013-03-25 07:05:00,
2013-03-25 02:10:00,23.8,19.7,30.08,WNW,292,5.0,9.0,84,0.00,,,0.00,VWS V14.00,2013-03-25 07:10:00,
2013-03-25 02:15:00,23.7,19.6,30.08,WNW,292,6.0,9.0,84,0.00,,,0.00,VWS V14.00,2013-03-25 07:15:00,
2013-03-25 02:20:00,23.6,19.5,30.08,WNW,292,7.0,11.0,84,0.00,,,0.00,VWS V14.00,2013-03-25 07:20:00,
2013-03-25 02:25:00,23.5,19.4,30.07,West,270,7.0,13.0,84,0.00,,,0.00,VWS V14.00,2013-03-25 07:25:00,
2013-03-25 02:30:00,23.4,19.3,30.07,WNW,292,6.0,11.0,84,0.00,,,0.00,VWS V14.00,2013-03-25 07:30:00,
2013-03-25 02:35:00,23.3,19.2,30.07,WNW,292,6.0,11.0,84,0.00,,,0.00,VWS V14.00,2013-03-25 07:35:00,
2013-03-25 02:40:00,23.2,19.1,30.07,WNW,292,6.0,11.0,84,0.00,,,0.00,VWS V14.00,2013-03-25 07:40:00,
2013-03-25 02:45:00,23.1,19.0,30.07,WNW,292,6.0,11.0,84,0.00,,,0.00,VWS V14.00,2013-03-25 07:45:00,
2013-03-25 02:50:00,23.1,19.3,30.07,WNW,292,7.0,12.0,85,0.00,,,0.00,VWS V14.00,2013-03-25 07:50:00,
2013-03-25 02:55:00,23.0,19.2,30.07,WNW,292,6.0,13.0,85,0.00,,,0.00,VWS V14.00,2013-03-25 07:55:00,
2013-03-25 03:00:00,22.9,19.1,30.07,WNW,292,7.0,14.0,85,0.00,,,0.00,VWS V14.00,2013-03-25 08:00:00,
2013-03-25 03:05:00,22.8,19.0,30.07,WNW,292,6.0,10.0,85,0.00,,,0.00,VWS V14.00,2013-03-25 08:05:00,
2013-03-25 03:10:00,22.7,18.9,30.07,WNW,292,8.0,12.0,85,0.00,,,0.00,VWS V14.00,2013-03-25 08:10:00,
2013-03-25 03:15:00,22.7,18.9,30.07,WNW,292,7.0,12.0,85,0.00,,,0.00,VWS V14.00,2013-03-25 08:15:00,
2013-03-25 03:20:00,22.6,18.8,30.07,West,270,8.0,12.0,85,0.00,,,0.00,VWS V14.00,2013-03-25 08:20:00,
2013-03-25 03:25:00,22.6,18.8,30.07,West,270,7.0,12.0,85,0.00,,,0.00,VWS V14.00,2013-03-25 08:25:00,
2013-03-25 03:30:00,22.6,18.8,30.07,West,270,7.0,13.0,85,0.00,,,0.00,VWS V14.00,2013-03-25 08:30:00,
2013-03-25 03:35:00,22.5,18.7,30.07,West,270,6.0,9.0,85,0.00,,,0.00,VWS V14.00,2013-03-25 08:35:00,
2013-03-25 03:40:00,22.4,18.6,30.07,WNW,292,6.0,12.0,85,0.00,,,0.00,VWS V14.00,2013-03-25 08:40:00,
2013-03-25 03:45:00,22.4,18.9,30.07,WNW,292,7.0,14.0,86,0.00,,,0.00,VWS V14.00,2013-03-25 08:45:00,
2013-03-25 03:50:00,22.3,18.5,30.07,WNW,292,6.0,10.0,85,0.00,,,0.00,VWS V14.00,2013-03-25 08:50:00,
2013-03-25 03:55:00,22.2,18.7,30.07,WNW,292,6.0,11.0,86,0.00,,,0.00,VWS V14.00,2013-03-25 08:55:00,
2013-03-25 04:00:00,22.1,18.6,30.07,West,270,7.0,11.0,86,0.00,,,0.00,VWS V14.00,2013-03-25 09:00:00,
2013-03-25 04:05:00,22.1,18.6,30.07,West,270,7.0,11.0,86,0.00,,,0.00,VWS V14.00,2013-03-25 09:05:00,
2013-03-25 04:10:00,22.1,18.6,30.07,West,270,7.0,13.0,86,0.00,,,0.00,VWS V14.00,2013-03-25 09:10:00,
2013-03-25 04:15:00,22.1,18.6,30.07,WNW,292,7.0,13.0,86,0.00,,,0.00,VWS V14.00,2013-03-25 09:15:00,
2013-03-25 04:20:00,22.1,18.6,30.07,WNW,292,7.0,13.0,86,0.00,,,0.00,VWS V14.00,2013-03-25 09:20:00,
2013-03-25 04:25:00,22.1,18.6,30.07,WNW,292,6.0,11.0,86,0.00,,,0.00,VWS V14.00,2013-03-25 09:25:00,
2013-03-25 04:30:00,22.1,18.8,30.06,WNW,292,7.0,16.0,87,0.00,,,0.00,VWS V14.00,2013-03-25 09:30:00,
2013-03-25 04:35:00,22.2,18.9,30.07,WNW,292,7.0,16.0,87,0.00,,,0.00,VWS V14.00,2013-03-25 09:35:00,
2013-03-25 04:40:00,22.2,18.7,30.07,West,270,7.0,13.0,86,0.00,,,0.00,VWS V14.00,2013-03-25 09:40:00,
2013-03-25 04:45:00,22.2,18.7,30.06,WNW,292,7.0,12.0,86,0.00,,,0.00,VWS V14.00,2013-03-25 09:45:00,
2013-03-25 04:50:00,22.2,18.9,30.07,West,270,7.0,13.0,87,0.00,,,0.00,VWS V14.00,2013-03-25 09:50:00,
2013-03-25 04:55:00,22.2,18.9,30.07,West,270,8.0,14.0,87,0.00,,,0.00,VWS V14.00,2013-03-25 09:55:00,
2013-03-25 05:00:00,22.2,18.7,30.07,West,270,8.0,15.0,86,0.00,,,0.00,VWS V14.00,2013-03-25 10:00:00,
2013-03-25 05:05:00,22.1,18.6,30.07,West,270,6.0,12.0,86,0.00,,,0.00,VWS V14.00,2013-03-25 10:05:00,
2013-03-25 05:10:00,22.1,18.8,30.07,WNW,292,7.0,13.0,87,0.00,,,0.00,VWS V14.00,2013-03-25 10:10:00,
2013-03-25 05:15:00,22.1,18.6,30.08,WNW,292,6.0,13.0,86,0.00,,,0.00,VWS V14.00,2013-03-25 10:15:00,
2013-03-25 05:20:00,22.0,18.5,30.08,West,270,7.0,12.0,86,0.00,,,0.00,VWS V14.00,2013-03-25 10:20:00,
2013-03-25 05:25:00,22.0,18.5,30.08,West,270,6.0,13.0,86,0.00,,,0.00,VWS V14.00,2013-03-25 10:25:00,
2013-03-25 05:30:00,22.1,18.8,30.08,West,270,7.0,12.0,87,0.00,,,0.00,VWS V14.00,2013-03-25 10:30:00,
2013-03-25 05:35:00,22.1,18.8,30.08,West,270,6.0,12.0,87,0.00,,,0.00,VWS V14.00,2013-03-25 10:35:00,
2013-03-25 05:40:00,22.2,18.9,30.09,West,270,6.0,11.0,87,0.00,,,0.00,VWS V14.00,2013-03-25 10:40:00,
2013-03-25 05:45:00,22.3,19.3,30.09,West,270,7.0,12.0,88,0.00,,,0.00,VWS V14.00,2013-03-25 10:45:00,
2013-03-25 05:50:00,22.5,19.5,30.09,West,270,8.0,14.0,88,0.00,,,0.00,VWS V14.00,2013-03-25 10:50:00,
2013-03-25 05:55:00,22.6,19.6,30.09,West,270,8.0,14.0,88,0.00,,,0.00,VWS V14.00,2013-03-25 10:55:00,
2013-03-25 06:00:00,22.7,19.4,30.09,West,270,7.0,16.0,87,0.00,,,0.00,VWS V14.00,2013-03-25 11:00:00,
2013-03-25 06:05:00,22.7,19.4,30.09,West,270,6.0,11.0,87,0.00,,,0.00,VWS V14.00,2013-03-25 11:05:00,
2013-03-25 06:10:00,22.7,19.4,30.09,West,270,6.0,13.0,87,0.00,,,0.00,VWS V14.00,2013-03-25 11:10:00,
2013-03-25 06:15:00,22.7,19.4,30.10,West,270,7.0,12.0,87,0.00,,,0.00,VWS V14.00,2013-03-25 11:15:00,
2013-03-25 06:20:00,22.6,19.6,30.10,West,270,7.0,12.0,88,0.00,,,0.00,VWS V14.00,2013-03-25 11:20:00,
2013-03-25 06:25:00,22.6,19.6,30.10,West,270,6.0,13.0,88,0.00,,,0.00,VWS V14.00,2013-03-25 11:25:00,
2013-03-25 06:30:00,22.6,19.6,30.10,West,270,7.0,13.0,88,0.00,,,0.00,VWS V14.00,2013-03-25 11:30:00,
2013-03-25 06:35:00,22.6,19.9,30.10,West,270,8.0,17.0,89,0.00,,,0.00,VWS V14.00,2013-03-25 11:35:00,
2013-03-25 06:40:00,22.7,20.0,30.10,West,270,6.0,11.0,89,0.00,,,0.00,VWS V14.00,2013-03-25 11:40:00,
2013-03-25 06:45:00,22.7,20.0,30.10,West,270,8.0,16.0,89,0.00,,,0.00,VWS V14.00,2013-03-25 11:45:00,
2013-03-25 06:50:00,22.9,20.1,30.10,West,270,8.0,15.0,89,0.00,,,0.00,VWS V14.00,2013-03-25 11:50:00,
2013-03-25 06:55:00,22.9,20.1,30.11,West,270,8.0,14.0,89,0.00,,,0.00,VWS V14.00,2013-03-25 11:55:00,
2013-03-25 07:00:00,23.0,20.2,30.11,West,270,8.0,17.0,89,0.00,,,0.00,VWS V14.00,2013-03-25 12:00:00,
2013-03-25 07:10:00,23.0,20.2,30.11,West,270,7.0,13.0,89,0.00,,,0.00,VWS V14.00,2013-03-25 12:10:00,
2013-03-25 07:15:00,23.1,20.4,30.11,West,270,7.0,13.0,89,0.00,,,0.00,VWS V14.00,2013-03-25 12:15:00,
2013-03-25 07:20:00,23.1,20.4,30.11,West,270,7.0,11.0,89,0.00,,,0.00,VWS V14.00,2013-03-25 12:20:00,
2013-03-25 07:25:00,23.2,20.5,30.12,West,270,6.0,12.0,89,0.00,,,0.00,VWS V14.00,2013-03-25 12:25:00,
2013-03-25 07:30:00,23.3,20.5,30.12,West,270,7.0,12.0,89,0.00,,,0.00,VWS V14.00,2013-03-25 12:30:00,
2013-03-25 07:35:00,23.3,20.5,30.12,West,270,7.0,12.0,89,0.00,,,0.00,VWS V14.00,2013-03-25 12:35:00,
2013-03-25 07:40:00,23.4,20.6,30.12,WNW,292,7.0,12.0,89,0.00,,,0.00,VWS V14.00,2013-03-25 12:40:00,
2013-03-25 07:45:00,23.5,20.7,30.12,West,270,8.0,14.0,89,0.00,,,0.00,VWS V14.00,2013-03-25 12:45:00,
2013-03-25 07:50:00,23.6,20.8,30.12,West,270,7.0,14.0,89,0.00,,,0.00,VWS V14.00,2013-03-25 12:50:00,
2013-03-25 07:55:00,23.6,20.8,30.12,West,270,8.0,14.0,89,0.00,,,0.00,VWS V14.00,2013-03-25 12:55:00,
2013-03-25 08:00:00,23.7,20.9,30.12,West,270,7.0,12.0,89,0.00,,,0.00,VWS V14.00,2013-03-25 13:00:00,
2013-03-25 08:05:00,23.8,21.0,30.12,West,270,6.0,13.0,89,0.00,,,0.00,VWS V14.00,2013-03-25 13:05:00,
2013-03-25 08:10:00,23.9,21.1,30.13,West,270,8.0,12.0,89,0.00,,,0.00,VWS V14.00,2013-03-25 13:10:00,
2013-03-25 08:15:00,24.0,21.2,30.13,West,270,7.0,14.0,89,0.00,,,0.00,VWS V14.00,2013-03-25 13:15:00,
2013-03-25 08:20:00,24.2,21.2,30.13,West,270,7.0,11.0,88,0.00,,,0.00,VWS V14.00,2013-03-25 13:20:00,
2013-03-25 08:25:00,24.3,21.5,30.14,West,270,6.0,13.0,89,0.00,,,0.00,VWS V14.00,2013-03-25 13:25:00,
2013-03-25 08:30:00,24.5,21.7,30.14,West,270,6.0,11.0,89,0.00,,,0.00,VWS V14.00,2013-03-25 13:30:00,
2013-03-25 08:35:00,24.8,22.0,30.14,West,270,7.0,12.0,89,0.00,,,0.00,VWS V14.00,2013-03-25 13:35:00,
2013-03-25 08:40:00,25.1,22.0,30.14,West,270,8.0,12.0,88,0.00,,,0.00,VWS V14.00,2013-03-25 13:40:00,
2013-03-25 08:45:00,25.4,22.4,30.15,WNW,292,7.0,12.0,88,0.00,,,0.00,VWS V14.00,2013-03-25 13:45:00,
2013-03-25 08:50:00,25.8,22.7,30.15,West,270,10.0,16.0,88,0.00,,,0.00,VWS V14.00,2013-03-25 13:50:00,
2013-03-25 08:55:00,26.2,23.1,30.15,West,270,9.0,16.0,88,0.00,,,0.00,VWS V14.00,2013-03-25 13:55:00,
2013-03-25 09:00:00,26.2,23.1,30.15,WNW,292,7.0,11.0,88,0.00,,,0.00,VWS V14.00,2013-03-25 14:00:00,
2013-03-25 09:05:00,27.0,23.6,30.15,WNW,292,10.0,17.0,87,0.00,,,0.00,VWS V14.00,2013-03-25 14:05:00,
2013-03-25 09:10:00,27.4,24.0,30.15,WNW,292,8.0,16.0,87,0.00,,,0.00,VWS V14.00,2013-03-25 14:10:00,
2013-03-25 09:15:00,27.9,24.5,30.16,WNW,292,9.0,22.0,87,0.00,,,0.00,VWS V14.00,2013-03-25 14:15:00,
2013-03-25 09:20:00,28.3,24.9,30.16,WNW,292,9.0,19.0,87,0.00,,,0.00,VWS V14.00,2013-03-25 14:20:00,
2013-03-25 09:25:00,28.7,25.0,30.16,WNW,292,10.0,18.0,86,0.00,,,0.00,VWS V14.00,2013-03-25 14:25:00,
2013-03-25 09:30:00,29.0,25.4,30.16,WNW,292,13.0,22.0,86,0.00,,,0.00,VWS V14.00,2013-03-25 14:30:00,
2013-03-25 09:35:00,29.4,25.7,30.16,WNW,292,8.0,15.0,86,0.00,,,0.00,VWS V14.00,2013-03-25 14:35:00,
2013-03-25 09:40:00,29.8,25.9,30.16,WNW,292,11.0,22.0,85,0.00,,,0.00,VWS V14.00,2013-03-25 14:40:00,
2013-03-25 09:45:00,30.1,26.4,30.17,WNW,292,8.0,14.0,86,0.00,,,0.00,VWS V14.00,2013-03-25 14:45:00,
2013-03-25 09:50:00,30.5,26.2,30.17,WNW,292,11.0,22.0,84,0.00,,,0.00,VWS V14.00,2013-03-25 14:50:00,
2013-03-25 09:55:00,30.6,26.4,30.17,WNW,292,11.0,17.0,84,0.00,,,0.00,VWS V14.00,2013-03-25 14:55:00,
2013-03-25 10:00:00,30.8,26.5,30.17,WNW,292,11.0,19.0,84,0.00,,,0.00,VWS V14.00,2013-03-25 15:00:00,
2013-03-25 10:05:00,31.0,26.7,30.17,WNW,292,9.0,22.0,84,0.00,,,0.00,VWS V14.00,2013-03-25 15:05:00,
2013-03-25 10:10:00,31.0,26.5,30.17,WNW,292,13.0,23.0,83,0.00,,,0.00,VWS V14.00,2013-03-25 15:10:00,
2013-03-25 10:15:00,31.1,26.8,30.18,WNW,292,9.0,19.0,84,0.00,,,0.00,VWS V14.00,2013-03-25 15:15:00,
2013-03-25 10:20:00,31.3,26.8,30.18,WNW,292,12.0,23.0,83,0.00,,,0.00,VWS V14.00,2013-03-25 15:20:00,
2013-03-25 10:25:00,31.3,26.5,30.18,WNW,292,13.0,22.0,82,0.00,,,0.00,VWS V14.00,2013-03-25 15:25:00,
2013-03-25 10:30:00,31.4,26.5,30.18,NW,315,12.0,21.0,82,0.00,,,0.00,VWS V14.00,2013-03-25 15:30:00,
2013-03-25 10:35:00,31.7,26.5,30.18,WNW,292,12.0,23.0,81,0.00,,,0.00,VWS V14.00,2013-03-25 15:35:00,
2013-03-25 10:40:00,31.9,26.7,30.19,NW,315,11.0,20.0,81,0.00,,,0.00,VWS V14.00,2013-03-25 15:40:00,
2013-03-25 10:45:00,32.0,26.5,30.19,NW,315,13.0,23.0,80,0.00,,,0.00,VWS V14.00,2013-03-25 15:45:00,
2013-03-25 10:50:00,32.0,26.5,30.19,WNW,292,10.0,21.0,80,0.00,,,0.00,VWS V14.00,2013-03-25 15:50:00,
2013-03-25 10:55:00,31.9,26.4,30.19,WNW,292,14.0,22.0,80,0.00,,,0.00,VWS V14.00,2013-03-25 15:55:00,
2013-03-25 11:00:00,31.9,26.4,30.19,WNW,292,12.0,22.0,80,0.00,,,0.00,VWS V14.00,2013-03-25 16:00:00,
2013-03-25 11:05:00,31.9,26.4,30.19,WNW,292,12.0,21.0,80,0.00,,,0.00,VWS V14.00,2013-03-25 16:05:00,
2013-03-25 11:10:00,31.9,26.4,30.19,WNW,292,13.0,21.0,80,0.00,,,0.00,VWS V14.00,2013-03-25 16:10:00,
2013-03-25 11:15:00,31.9,26.1,30.20,WNW,292,14.0,22.0,79,0.00,,,0.00,VWS V14.00,2013-03-25 16:15:00,
2013-03-25 11:20:00,31.7,25.9,30.20,WNW,292,16.0,25.0,79,0.00,,,0.00,VWS V14.00,2013-03-25 16:20:00,
2013-03-25 11:25:00,32.0,26.5,30.20,WNW,292,12.0,20.0,80,0.01,,,0.01,VWS V14.00,2013-03-25 16:25:00,
2013-03-25 11:30:00,32.6,26.8,30.20,NW,315,12.0,20.0,79,0.01,,,0.01,VWS V14.00,2013-03-25 16:30:00,
2013-03-25 11:35:00,33.0,27.2,30.20,NW,315,10.0,20.0,79,0.01,,,0.01,VWS V14.00,2013-03-25 16:35:00,
2013-03-25 11:40:00,33.4,27.3,30.20,WNW,292,11.0,17.0,78,0.01,,,0.01,VWS V14.00,2013-03-25 16:40:00,
2013-03-25 11:45:00,33.4,27.0,30.20,WNW,292,10.0,21.0,77,0.01,,,0.01,VWS V14.00,2013-03-25 16:45:00,
2013-03-25 11:50:00,33.2,27.1,30.21,WNW,292,13.0,22.0,78,0.02,,,0.02,VWS V14.00,2013-03-25 16:50:00,
2013-03-25 11:55:00,33.2,27.4,30.21,WNW,292,11.0,21.0,79,0.02,,,0.02,VWS V14.00,2013-03-25 16:55:00,
2013-03-25 12:00:00,33.4,27.0,30.21,WNW,292,10.0,18.0,77,0.02,,,0.02,VWS V14.00,2013-03-25 17:00:00,
2013-03-25 12:05:00,33.4,27.0,30.21,WNW,292,10.0,18.0,77,0.03,,,0.03,VWS V14.00,2013-03-25 17:05:00,
2013-03-25 12:10:00,33.6,27.2,30.21,WNW,292,8.0,17.0,77,0.03,,,0.03,VWS V14.00,2013-03-25 17:10:00,
2013-03-25 12:15:00,33.7,27.0,30.21,WNW,292,12.0,21.0,76,0.03,,,0.03,VWS V14.00,2013-03-25 17:15:00,
2013-03-25 12:20:00,33.5,26.4,30.21,WNW,292,13.0,23.0,75,0.04,,,0.04,VWS V14.00,2013-03-25 17:20:00,
2013-03-25 12:25:00,33.5,26.8,30.21,WNW,292,14.0,24.0,76,0.04,,,0.04,VWS V14.00,2013-03-25 17:25:00,
2013-03-25 12:30:00,33.6,27.2,30.21,WNW,292,11.0,21.0,77,0.03,,,0.04,VWS V14.00,2013-03-25 17:30:00,
2013-03-25 12:35:00,33.9,27.1,30.21,WNW,292,11.0,20.0,76,0.04,,,0.05,VWS V14.00,2013-03-25 17:35:00,
2013-03-25 12:40:00,34.3,27.5,30.21,WNW,292,7.0,15.0,76,0.04,,,0.05,VWS V14.00,2013-03-25 17:40:00,
2013-03-25 12:45:00,34.6,27.8,30.21,WNW,292,7.0,18.0,76,0.04,,,0.05,VWS V14.00,2013-03-25 17:45:00,
2013-03-25 12:50:00,34.6,27.5,30.21,WNW,292,10.0,18.0,75,0.05,,,0.06,VWS V14.00,2013-03-25 17:50:00,
2013-03-25 12:55:00,34.4,27.3,30.21,WNW,292,8.0,15.0,75,0.04,,,0.06,VWS V14.00,2013-03-25 17:55:00,
2013-03-25 13:00:00,34.4,27.3,30.21,WNW,292,9.0,21.0,75,0.04,,,0.06,VWS V14.00,2013-03-25 18:00:00,
2013-03-25 13:05:00,34.3,27.2,30.22,WNW,292,11.0,22.0,75,0.05,,,0.07,VWS V14.00,2013-03-25 18:05:00,
2013-03-25 13:10:00,34.2,27.1,30.22,WNW,292,11.0,24.0,75,0.04,,,0.07,VWS V14.00,2013-03-25 18:10:00,
2013-03-25 13:15:00,34.5,27.4,30.21,WNW,292,10.0,20.0,75,0.04,,,0.07,VWS V14.00,2013-03-25 18:15:00,
2013-03-25 13:20:00,34.7,27.9,30.22,WNW,292,11.0,21.0,76,0.04,,,0.07,VWS V14.00,2013-03-25 18:20:00,
2013-03-25 13:25:00,34.4,27.0,30.21,WNW,292,12.0,20.0,74,0.04,,,0.08,VWS V14.00,2013-03-25 18:25:00,
2013-03-25 13:30:00,34.5,27.1,30.21,WNW,292,11.0,22.0,74,0.04,,,0.08,VWS V14.00,2013-03-25 18:30:00,
2013-03-25 13:35:00,34.6,27.2,30.21,WNW,292,9.0,18.0,74,0.05,,,0.09,VWS V14.00,2013-03-25 18:35:00,
2013-03-25 13:40:00,34.5,26.8,30.21,WNW,292,12.0,21.0,73,0.04,,,0.09,VWS V14.00,2013-03-25 18:40:00,
2013-03-25 13:45:00,34.6,26.9,30.22,WNW,292,14.0,21.0,73,0.04,,,0.09,VWS V14.00,2013-03-25 18:45:00,
2013-03-25 13:50:00,34.8,27.0,30.22,WNW,292,10.0,20.0,73,0.04,,,0.09,VWS V14.00,2013-03-25 18:50:00,
2013-03-25 13:55:00,35.0,26.9,30.22,WNW,292,12.0,21.0,72,0.04,,,0.10,VWS V14.00,2013-03-25 18:55:00,
2013-03-25 14:00:00,35.2,27.1,30.21,WNW,292,12.0,19.0,72,0.04,,,0.10,VWS V14.00,2013-03-25 19:00:00,
2013-03-25 14:05:00,35.3,26.5,30.22,WNW,292,11.0,19.0,70,0.05,,,0.11,VWS V14.00,2013-03-25 19:05:00,
2013-03-25 14:10:00,35.3,26.9,30.21,WNW,292,9.0,19.0,71,0.04,,,0.11,VWS V14.00,2013-03-25 19:10:00,
2013-03-25 14:15:00,35.4,27.3,30.21,WNW,292,8.0,14.0,72,0.04,,,0.11,VWS V14.00,2013-03-25 19:15:00,
2013-03-25 14:20:00,35.8,27.7,30.21,WNW,292,8.0,15.0,72,0.05,,,0.12,VWS V14.00,2013-03-25 19:20:00,
2013-03-25 14:25:00,35.7,26.9,30.22,WNW,292,9.0,17.0,70,0.05,,,0.12,VWS V14.00,2013-03-25 19:25:00,
2013-03-25 14:30:00,35.4,26.6,30.22,WNW,292,12.0,21.0,70,0.04,,,0.12,VWS V14.00,2013-03-25 19:30:00,
2013-03-25 14:35:00,35.0,25.9,30.21,WNW,292,11.0,19.0,69,0.05,,,0.13,VWS V14.00,2013-03-25 19:35:00,
2013-03-25 14:40:00,34.6,26.5,30.22,West,270,9.0,19.0,72,0.04,,,0.13,VWS V14.00,2013-03-25 19:40:00,
2013-03-25 14:45:00,34.4,26.7,30.22,West,270,10.0,19.0,73,0.04,,,0.13,VWS V14.00,2013-03-25 19:45:00,
2013-03-25 14:50:00,34.2,26.8,30.22,West,270,11.0,19.0,74,0.04,,,0.13,VWS V14.00,2013-03-25 19:50:00,
2013-03-25 14:55:00,34.1,27.0,30.22,West,270,11.0,19.0,75,0.04,,,0.13,VWS V14.00,2013-03-25 19:55:00,
2013-03-25 15:00:00,33.8,27.0,30.22,West,270,10.0,21.0,76,0.03,,,0.13,VWS V14.00,2013-03-25 20:00:00,
2013-03-25 15:05:00,33.5,26.1,30.22,WNW,292,12.0,18.0,74,0.03,,,0.13,VWS V14.00,2013-03-25 20:05:00,
2013-03-25 15:10:00,33.6,27.2,30.23,WNW,292,6.0,12.0,77,0.02,,,0.13,VWS V14.00,2013-03-25 20:10:00,
2013-03-25 15:15:00,34.0,27.2,30.23,WNW,292,9.0,16.0,76,0.02,,,0.13,VWS V14.00,2013-03-25 20:15:00,
2013-03-25 15:20:00,34.0,26.6,30.23,WNW,292,12.0,20.0,74,0.02,,,0.13,VWS V14.00,2013-03-25 20:20:00,
2013-03-25 15:25:00,33.8,26.7,30.23,WNW,292,11.0,17.0,75,0.01,,,0.13,VWS V14.00,2013-03-25 20:25:00,
2013-03-25 15:30:00,34.1,27.0,30.23,WNW,292,9.0,17.0,75,0.01,,,0.13,VWS V14.00,2013-03-25 20:30:00,
2013-03-25 15:35:00,34.2,27.4,30.23,WNW,292,11.0,20.0,76,0.02,,,0.14,VWS V14.00,2013-03-25 20:35:00,
2013-03-25 15:40:00,33.8,27.4,30.23,WNW,292,13.0,20.0,77,0.01,,,0.14,VWS V14.00,2013-03-25 20:40:00,
2013-03-25 15:45:00,33.5,27.1,30.23,WNW,292,10.0,16.0,77,0.01,,,0.14,VWS V14.00,2013-03-25 20:45:00,
2013-03-25 15:50:00,33.5,27.4,30.23,WNW,292,6.0,13.0,78,0.01,,,0.14,VWS V14.00,2013-03-25 20:50:00,
2013-03-25 15:55:00,33.7,27.6,30.23,WNW,292,7.0,15.0,78,0.01,,,0.14,VWS V14.00,2013-03-25 20:55:00,
2013-03-25 16:00:00,33.6,27.8,30.24,WNW,292,8.0,16.0,79,0.01,,,0.14,VWS V14.00,2013-03-25 21:00:00,
2013-03-25 16:05:00,33.4,27.0,30.24,WNW,292,10.0,17.0,77,0.01,,,0.14,VWS V14.00,2013-03-25 21:05:00,
2013-03-25 16:10:00,33.3,27.5,30.24,WNW,292,7.0,12.0,79,0.01,,,0.14,VWS V14.00,2013-03-25 21:10:00,
2013-03-25 16:15:00,33.4,27.3,30.24,WNW,292,8.0,16.0,78,0.01,,,0.14,VWS V14.00,2013-03-25 21:15:00,
2013-03-25 16:20:00,33.5,27.1,30.24,WNW,292,6.0,12.0,77,0.01,,,0.14,VWS V14.00,2013-03-25 21:20:00,
2013-03-25 16:25:00,33.7,27.0,30.24,WNW,292,8.0,14.0,76,0.01,,,0.14,VWS V14.00,2013-03-25 21:25:00,
2013-03-25 16:30:00,33.7,27.0,30.24,NW,315,7.0,14.0,76,0.01,,,0.14,VWS V14.00,2013-03-25 21:30:00,
2013-03-25 16:35:00,33.8,27.4,30.24,WNW,292,7.0,15.0,77,0.02,,,0.15,VWS V14.00,2013-03-25 21:35:00,
2013-03-25 16:40:00,34.1,27.7,30.24,WNW,292,7.0,13.0,77,0.01,,,0.15,VWS V14.00,2013-03-25 21:40:00,
2013-03-25 16:45:00,34.1,27.0,30.25,NW,315,7.0,17.0,75,0.01,,,0.15,VWS V14.00,2013-03-25 21:45:00,
2013-03-25 16:50:00,33.8,26.7,30.25,WNW,292,11.0,20.0,75,0.01,,,0.15,VWS V14.00,2013-03-25 21:50:00,
2013-03-25 16:55:00,33.6,27.5,30.25,WNW,292,10.0,19.0,78,0.01,,,0.15,VWS V14.00,2013-03-25 21:55:00,
2013-03-25 17:00:00,33.5,26.4,30.25,WNW,292,12.0,23.0,75,0.01,,,0.15,VWS V14.00,2013-03-25 22:00:00,
2013-03-25 17:05:00,33.6,26.9,30.25,WNW,292,8.0,15.0,76,0.01,,,0.15,VWS V14.00,2013-03-25 22:05:00,
2013-03-25 17:15:00,33.5,26.4,30.25,NW,305,6.0,8.0,75,0.01,,,0.15,VWS V14.00,2013-03-25 22:15:00,
2013-03-25 17:20:00,33.5,27.1,30.25,WNW,293,6.0,9.0,77,0.01,,,0.15,VWS V14.00,2013-03-25 22:20:00,
2013-03-25 17:25:00,33.6,26.9,30.25,WNW,299,10.0,10.0,76,0.01,,,0.15,VWS V14.00,2013-03-25 22:25:00,
2013-03-25 17:30:00,33.8,27.7,30.25,WNW,303,7.0,8.0,78,0.01,,,0.15,VWS V14.00,2013-03-25 22:30:00,
2013-03-25 17:35:00,33.9,26.5,30.25,WNW,291,13.0,16.0,74,0.00,,,0.15,VWS V14.00,2013-03-25 22:35:00,
2013-03-25 17:40:00,33.9,26.5,30.25,NW,305,3.0,4.0,74,0.00,,,0.15,VWS V14.00,2013-03-25 22:40:00,
2013-03-25 17:45:00,33.9,26.5,30.26,NW,307,8.0,8.0,74,0.00,,,0.15,VWS V14.00,2013-03-25 22:45:00,
2013-03-25 17:50:00,33.9,26.5,30.26,WNW,302,8.0,20.0,74,0.00,,,0.15,VWS V14.00,2013-03-25 22:50:00,
2013-03-25 17:55:00,33.9,26.5,30.26,WNW,288,11.0,11.0,74,0.00,,,0.15,VWS V14.00,2013-03-25 22:55:00,
2013-03-25 18:00:00,33.8,26.7,30.26,West,280,6.0,8.0,75,0.00,,,0.15,VWS V14.00,2013-03-25 23:00:00,
2013-03-25 18:05:00,33.7,27.0,30.26,NW,310,9.0,11.0,76,0.00,,,0.15,VWS V14.00,2013-03-25 23:05:00,
2013-03-25 18:10:00,33.6,26.2,30.26,WNW,298,13.0,13.0,74,0.00,,,0.15,VWS V14.00,2013-03-25 23:10:00,
2013-03-25 18:15:00,33.5,25.8,30.26,WNW,300,7.0,7.0,73,0.00,,,0.15,VWS V14.00,2013-03-25 23:15:00,
2013-03-25 18:20:00,33.4,26.0,30.26,WNW,284,17.0,17.0,74,0.00,,,0.15,VWS V14.00,2013-03-25 23:20:00,
2013-03-25 18:25:00,33.4,26.0,30.26,WNW,301,5.0,10.0,74,0.00,,,0.15,VWS V14.00,2013-03-25 23:25:00,
2013-03-25 18:30:00,33.3,25.6,30.26,WNW,297,10.0,11.0,73,0.00,,,0.15,VWS V14.00,2013-03-25 23:30:00,
2013-03-25 18:35:00,33.2,25.5,30.26,NNW,327,7.0,9.0,73,0.00,,,0.15,VWS V14.00,2013-03-25 23:35:00,
2013-03-25 18:40:00,33.1,25.7,30.27,NW,309,15.0,15.0,74,0.00,,,0.15,VWS V14.00,2013-03-25 23:40:00,
2013-03-25 18:45:00,32.9,24.5,30.27,WNW,288,18.0,19.0,71,0.00,,,0.15,VWS V14.00,2013-03-25 23:45:00,
2013-03-25 18:50:00,32.8,24.8,30.27,WNW,295,8.0,11.0,72,0.00,,,0.15,VWS V14.00,2013-03-25 23:50:00,
2013-03-25 18:55:00,32.8,24.8,30.27,NW,308,13.0,15.0,72,0.00,,,0.15,VWS V14.00,2013-03-25 23:55:00,
2013-03-25 19:00:00,32.7,24.7,30.28,WNW,297,9.0,10.0,72,0.00,,,0.15,VWS V14.00,2013-03-26 00:00:00,
2013-03-25 19:05:00,32.7,24.7,30.28,NW,305,11.0,14.0,72,0.00,,,0.15,VWS V14.00,2013-03-26 00:05:00,
2013-03-25 19:10:00,32.6,24.9,30.28,WNW,290,5.0,5.0,73,0.00,,,0.15,VWS V14.00,2013-03-26 00:10:00,
2013-03-25 19:15:00,32.5,24.5,30.28,WNW,303,4.0,4.0,72,0.00,,,0.15,VWS V14.00,2013-03-26 00:15:00,
2013-03-25 19:20:00,32.5,24.8,30.28,NW,324,13.0,13.0,73,0.00,,,0.15,VWS V14.00,2013-03-26 00:20:00,
2013-03-25 19:25:00,32.4,25.4,30.29,WNW,287,4.0,4.0,75,0.00,,,0.15,VWS V14.00,2013-03-26 00:25:00,
2013-03-25 19:30:00,32.3,25.3,30.29,WNW,289,4.0,5.0,75,0.00,,,0.15,VWS V14.00,2013-03-26 00:30:00,
2013-03-25 19:35:00,32.3,25.3,30.29,WNW,302,3.0,3.0,75,0.00,,,0.15,VWS V14.00,2013-03-26 00:35:00,
2013-03-25 19:40:00,32.2,24.9,30.29,WNW,302,13.0,13.0,74,0.00,,,0.15,VWS V14.00,2013-03-26 00:40:00,
2013-03-25 19:45:00,32.2,25.2,30.29,WNW,288,3.0,6.0,75,0.00,,,0.15,VWS V14.00,2013-03-26 00:45:00,
2013-03-25 19:50:00,32.1,25.4,30.29,WNW,290,10.0,10.0,76,0.00,,,0.15,VWS V14.00,2013-03-26 00:50:00,
2013-03-25 19:55:00,32.0,25.3,30.29,NW,316,11.0,11.0,76,0.00,,,0.15,VWS V14.00,2013-03-26 00:55:00,
2013-03-25 20:00:00,31.8,25.4,30.30,WNW,291,5.0,10.0,77,0.00,,,0.15,VWS V14.00,2013-03-26 01:00:00,
2013-03-25 20:05:00,31.7,25.3,30.30,WNW,302,11.0,13.0,77,0.00,,,0.15,VWS V14.00,2013-03-26 01:05:00,
2013-03-25 20:10:00,31.7,25.0,30.30,NW,306,8.0,8.0,76,0.00,,,0.15,VWS V14.00,2013-03-26 01:10:00,
2013-03-25 20:15:00,31.6,25.2,30.30,WNW,289,8.0,8.0,77,0.00,,,0.15,VWS V14.00,2013-03-26 01:15:00,
2013-03-25 20:20:00,31.5,25.1,30.30,WNW,295,11.0,11.0,77,0.00,,,0.15,VWS V14.00,2013-03-26 01:20:00,
2013-03-25 20:25:00,31.5,25.1,30.30,WNW,303,12.0,12.0,77,0.00,,,0.15,VWS V14.00,2013-03-26 01:25:00,
2013-03-25 20:30:00,31.5,25.1,30.31,WNW,299,8.0,10.0,77,0.00,,,0.15,VWS V14.00,2013-03-26 01:30:00,
2013-03-25 20:35:00,31.5,25.4,30.31,WNW,303,14.0,18.0,78,0.00,,,0.15,VWS V14.00,2013-03-26 01:35:00,
2013-03-25 20:40:00,31.4,25.4,30.31,NW,307,8.0,8.0,78,0.00,,,0.15,VWS V14.00,2013-03-26 01:40:00,
2013-03-25 20:45:00,31.3,25.2,30.31,WNW,299,4.0,4.0,78,0.00,,,0.15,VWS V14.00,2013-03-26 01:45:00,
2013-03-25 20:50:00,31.2,25.1,30.31,WNW,285,3.0,5.0,78,0.00,,,0.15,VWS V14.00,2013-03-26 01:50:00,
2013-03-25 20:55:00,31.1,25.4,30.31,WNW,292,8.0,17.0,79,0.00,,,0.15,VWS V14.00,2013-03-26 01:55:00,
2013-03-25 21:00:00,31.1,25.4,30.32,WNW,292,8.0,14.0,79,0.00,,,0.15,VWS V14.00,2013-03-26 02:00:00,
2013-03-25 21:05:00,31.0,25.3,30.32,WNW,292,8.0,14.0,79,0.00,,,0.15,VWS V14.00,2013-03-26 02:05:00,
2013-03-25 21:10:00,31.0,25.3,30.32,WNW,292,8.0,14.0,79,0.00,,,0.15,VWS V14.00,2013-03-26 02:10:00,
2013-03-25 21:15:00,30.9,25.2,30.32,WNW,292,7.0,14.0,79,0.00,,,0.15,VWS V14.00,2013-03-26 02:15:00,
2013-03-25 21:20:00,30.8,25.1,30.32,WNW,292,7.0,14.0,79,0.00,,,0.15,VWS V14.00,2013-03-26 02:20:00,
2013-03-25 21:25:00,30.7,25.0,30.33,WNW,292,7.0,12.0,79,0.00,,,0.15,VWS V14.00,2013-03-26 02:25:00,
2013-03-25 21:30:00,30.7,25.0,30.33,WNW,292,7.0,12.0,79,0.00,,,0.15,VWS V14.00,2013-03-26 02:30:00,
2013-03-25 21:35:00,30.7,25.0,30.33,WNW,292,6.0,12.0,79,0.00,,,0.15,VWS V14.00,2013-03-26 02:35:00,
2013-03-25 21:40:00,30.6,25.2,30.33,WNW,292,6.0,12.0,80,0.00,,,0.15,VWS V14.00,2013-03-26 02:40:00,
2013-03-25 21:45:00,30.6,25.2,30.33,WNW,292,6.0,13.0,80,0.00,,,0.15,VWS V14.00,2013-03-26 02:45:00,
2013-03-25 21:50:00,30.5,25.1,30.33,WNW,292,5.0,9.0,80,0.00,,,0.15,VWS V14.00,2013-03-26 02:50:00,
2013-03-25 21:55:00,30.5,25.4,30.34,WNW,292,5.0,12.0,81,0.00,,,0.15,VWS V14.00,2013-03-26 02:55:00,
2013-03-25 22:00:00,30.4,25.3,30.33,WNW,292,6.0,11.0,81,0.00,,,0.15,VWS V14.00,2013-03-26 03:00:00,
2013-03-25 22:05:00,30.4,25.3,30.34,WNW,292,6.0,11.0,81,0.00,,,0.15,VWS V14.00,2013-03-26 03:05:00,
2013-03-25 22:10:00,30.3,25.2,30.34,WNW,292,6.0,13.0,81,0.00,,,0.15,VWS V14.00,2013-03-26 03:10:00,
2013-03-25 22:15:00,30.3,25.2,30.34,WNW,292,8.0,15.0,81,0.00,,,0.15,VWS V14.00,2013-03-26 03:15:00,
2013-03-25 22:20:00,30.3,25.2,30.34,WNW,292,7.0,14.0,81,0.00,,,0.15,VWS V14.00,2013-03-26 03:20:00,
2013-03-25 22:25:00,30.4,25.3,30.35,WNW,292,7.0,12.0,81,0.00,,,0.15,VWS V14.00,2013-03-26 03:25:00,
2013-03-25 22:30:00,30.3,25.2,30.35,WNW,292,6.0,12.0,81,0.00,,,0.15,VWS V14.00,2013-03-26 03:30:00,
2013-03-25 22:35:00,30.3,25.2,30.35,WNW,292,7.0,13.0,81,0.00,,,0.15,VWS V14.00,2013-03-26 03:35:00,
2013-03-25 22:40:00,30.3,25.2,30.35,WNW,292,8.0,14.0,81,0.00,,,0.15,VWS V14.00,2013-03-26 03:40:00,
2013-03-25 22:45:00,30.3,24.9,30.35,WNW,292,8.0,14.0,80,0.00,,,0.15,VWS V14.00,2013-03-26 03:45:00,
2013-03-25 22:50:00,30.2,24.8,30.35,WNW,292,7.0,15.0,80,0.00,,,0.15,VWS V14.00,2013-03-26 03:50:00,
2013-03-25 22:55:00,30.1,25.0,30.35,WNW,292,7.0,11.0,81,0.00,,,0.15,VWS V14.00,2013-03-26 03:55:00,
2013-03-25 23:00:00,30.1,25.0,30.35,WNW,292,7.0,12.0,81,0.00,,,0.15,VWS V14.00,2013-03-26 04:00:00,
2013-03-25 23:05:00,29.9,24.5,30.35,WNW,292,7.0,15.0,80,0.00,,,0.15,VWS V14.00,2013-03-26 04:05:00,
2013-03-25 23:10:00,29.9,24.5,30.35,WNW,292,6.0,10.0,80,0.00,,,0.15,VWS V14.00,2013-03-26 04:10:00,
2013-03-25 23:25:00,29.4,24.0,30.35,WNW,292,6.0,13.0,80,0.00,,,0.15,VWS V14.00,2013-03-26 04:25:00,
2013-03-25 23:30:00,29.3,23.9,30.35,WNW,292,7.0,14.0,80,0.00,,,0.15,VWS V14.00,2013-03-26 04:30:00,
2013-03-25 23:35:00,29.2,23.8,30.35,WNW,292,7.0,12.0,80,0.00,,,0.15,VWS V14.00,2013-03-26 04:35:00,
2013-03-25 23:40:00,29.0,23.9,30.35,WNW,292,7.0,11.0,81,0.00,,,0.15,VWS V14.00,2013-03-26 04:40:00,
2013-03-25 23:45:00,28.9,23.8,30.36,WNW,292,5.0,10.0,81,0.00,,,0.15,VWS V14.00,2013-03-26 04:45:00,
2013-03-25 23:50:00,28.7,23.6,30.36,WNW,292,6.0,11.0,81,0.00,,,0.15,VWS V14.00,2013-03-26 04:50:00,
2013-03-25 23:55:00,28.6,23.5,30.36,WNW,292,6.0,11.0,81,0.00,,,0.15,VWS V14.00,2013-03-26 04:55:00,